Location: Oso Ridge
(35.0450°N, 108.0864°W)
Time: 04:19:28
(UTC-06:00)

Amateur Radio Satellites - All Passes

Search period start: 24 August 2016 03:49
Search period end: 25 August 2016 03:49
Location: Oso Ridge, 35.0450°N, 108.0864°W

Satellite Date Start Highest point End Downlink Frequencies (MHz)
Time Altitude Azimuth
Gurwin Techsat 1B 24 Aug 03:52:09 03:57:13 45° 288° (WNW) 04:02:14 435.225
STARS 24 Aug 04:03:12 04:06:36 22° 69° (ENE) 04:10:01 437.465
RS-15 24 Aug 04:03:52 04:14:42 44° 312° (NW) 04:26:08 29.354- 29.394
ITAMSAT 1 24 Aug 04:20:13 04:25:24 83° 285° (WNW) 04:30:35 435.822/435.867
ITUPSAT 1 24 Aug 04:24:22 04:25:43 11° 268° (W) 04:27:06 437.325
MOZHAYETS 4 24 Aug 04:26:27 04:31:00 75° 257° (WSW) 04:35:35
PHONESAT 2.4 24 Aug 04:43:34 04:46:29 51° 342° (NNW) 04:49:26 2401.200-2431.200
KKS-1 24 Aug 04:51:07 04:55:25 47° 260° (W) 04:59:45 437.445
AO-7 24 Aug 05:05:54 05:14:15 85° 108° (ESE) 05:22:33 29.400- 29.500
AO-85 24 Aug 05:14:09 05:15:34 11° 106° (ESE) 05:16:59 145.980
CUBESAT XI-V 24 Aug 05:35:12 05:39:46 70° 75° (ENE) 05:44:21 437.345
STARS 24 Aug 05:38:57 05:42:46 28° 263° (W) 05:46:37 437.465
Cosmos 2491 24 Aug 05:42:35 05:50:47 41° 76° (ENE) 05:58:57 435.465 / 435.565
HORYU 2 24 Aug 06:07:42 06:12:06 65° 102° (ESE) 06:16:28 437.375
Cubesat XI-IV 24 Aug 06:19:18 06:22:01 14° 92° (E) 06:24:42 437.490
PHONESAT 2.4 24 Aug 06:20:35 06:23:12 27° 359° (N) 06:25:50 2401.200-2431.200
RS-15 24 Aug 06:25:08 06:31:50 16° 343° (NNW) 06:38:38 29.354- 29.394
GOMX 1 24 Aug 06:25:14 06:28:50 18° 91° (E) 06:32:20 467.674
BRITE-PL 24 Aug 06:26:47 06:32:13 44° 98° (E) 06:37:32 437.365/2234.400
CUTE-I 24 Aug 06:31:36 06:35:22 19° 94° (E) 06:39:06 437.470
NOAA 18 24 Aug 06:37:11 06:41:04 20° 95° (E) 06:44:57 137.9125
NOAA 15 24 Aug 06:45:28 06:50:19 35° 98° (E) 06:55:09 137.62
AO-85 24 Aug 06:50:05 06:55:28 82° 299° (WNW) 07:00:36 145.980
DOVE 4 24 Aug 06:53:23 06:55:49 13° 90° (E) 06:58:11 437.250
YUBILEINY 24 Aug 06:53:29 07:02:00 56° 90° (E) 07:10:33 435.215
STRAND 1 24 Aug 06:54:56 06:59:08 26° 68° (ENE) 07:03:21 437.568
AO-7 24 Aug 07:00:33 07:05:59 20° 305° (NW) 07:11:25 29.400- 29.500
LilacSat-2 24 Aug 07:01:21 07:04:51 36° 98° (E) 07:08:20 437.200
HO-68 24 Aug 07:38:37 07:41:27 12° 91° (E) 07:44:15 435.675
Cosmos 2491 24 Aug 07:39:32 07:47:27 39° 273° (W) 07:55:22 435.465 / 435.565
Cosmos 2504 24 Aug 07:44:16 07:52:11 42° 89° (E) 07:59:41 435.465 / 435.565
HORYU 2 24 Aug 07:47:40 07:48:03 10° 296° (WNW) 07:48:26 437.375
PHONESAT 2.4 24 Aug 07:57:04 07:59:57 44° 15° (NNE) 08:02:50 2401.200-2431.200
Cubesat XI-IV 24 Aug 07:57:11 08:02:24 60° 287° (WNW) 08:07:37 437.490
GOMX 1 24 Aug 08:01:54 08:07:09 49° 287° (WNW) 08:12:09 467.674
CINEMA 3 24 Aug 08:02:46 08:05:50 18° 93° (E) 08:08:47 145.822/145.860
BRITE-PL 24 Aug 08:05:54 08:10:18 23° 293° (WNW) 08:14:39 437.365/2234.400
CUTE-I 24 Aug 08:10:33 08:15:33 44° 289° (WNW) 08:20:33 437.470
NOAA 18 24 Aug 08:16:42 08:21:55 45° 289° (WNW) 08:27:04 137.9125
CANX-2 24 Aug 08:18:33 08:21:55 23° 95° (E) 08:25:16 2200.000
CUTE 1.7 + AOD 2 24 Aug 08:25:26 08:28:51 23° 96° (E) 08:32:15 437.475
NOAA 15 24 Aug 08:25:37 08:29:52 25° 293° (WNW) 08:34:07 137.62
DOVE 4 24 Aug 08:28:52 08:33:53 56° 286° (WNW) 08:38:36 437.250
STRAND 1 24 Aug 08:33:40 08:38:09 31° 263° (W) 08:42:38 437.568
AO-85 24 Aug 08:34:42 08:36:36 12° 315° (NW) 08:38:29 145.980
LilacSat-2 24 Aug 08:37:14 08:38:47 12° 292° (WNW) 08:40:19 437.200
PRISM 24 Aug 08:40:41 08:44:18 32° 72° (ENE) 08:47:57 437.425
RS-15 24 Aug 08:44:18 08:51:49 17° 22° (NNE) 08:59:20 29.354- 29.394
CUBEBUG 2 24 Aug 08:48:06 08:50:17 14° 92° (E) 08:52:25 437.445
AAUSAT CUBESAT 2 24 Aug 08:48:43 08:51:13 15° 94° (E) 08:53:43 437.432
YUBILEINY 24 Aug 08:51:52 08:59:09 28° 288° (WNW) 09:06:30 435.215
COMPASS 1 24 Aug 08:52:05 08:55:23 22° 96° (E) 08:58:40 437.405
ZACube-1 24 Aug 09:18:13 09:19:50 12° 92° (E) 09:21:25 437.345
HO-68 24 Aug 09:22:43 09:29:55 89° 100° (E) 09:37:05 435.675
TIGRISAT 24 Aug 09:29:44 09:30:47 11° 65° (ENE) 09:31:50 435.000
PHONESAT 2.4 24 Aug 09:33:32 09:36:17 33° 210° (SSW) 09:39:01 2401.200-2431.200
Cosmos 2504 24 Aug 09:37:46 09:45:30 36° 284° (WNW) 09:52:52 435.465 / 435.565
CINEMA 3 24 Aug 09:38:56 09:43:04 34° 289° (WNW) 09:47:00 145.822/145.860
SEEDS 24 Aug 09:40:12 09:44:20 59° 285° (WNW) 09:48:28 437.485
SO-50 24 Aug 09:47:24 09:51:41 38° 55° (NE) 09:55:52 436.795
ISS 24 Aug 09:50:36 09:53:43 44° 133° (SE) 09:56:51 145.825
CANX-2 24 Aug 09:54:14 09:57:40 24° 289° (WNW) 10:01:05 2200.000
UNISAT 6 24 Aug 09:54:15 09:57:49 22° 69° (ENE) 10:01:21 437.425
CUSAT 1 24 Aug 09:54:46 09:57:46 13° 71° (ENE) 10:00:59 437.405
CUTE 1.7 + AOD 2 24 Aug 10:01:11 10:04:34 23° 289° (WNW) 10:07:56 437.475
AIST 1 24 Aug 10:13:59 10:18:18 79° 96° (E) 10:22:40
PRISM 24 Aug 10:17:07 10:19:39 16° 266° (W) 10:22:12 437.425
AAUSAT CUBESAT 2 24 Aug 10:23:01 10:26:46 34° 287° (WNW) 10:30:32 437.432
CUBEBUG 2 24 Aug 10:23:07 10:27:04 38° 287° (WNW) 10:30:55 437.445
COMPASS 1 24 Aug 10:27:28 10:30:50 24° 289° (WNW) 10:34:11 437.405
UWE-3 24 Aug 10:28:53 10:32:57 50° 285° (WNW) 10:36:57 435.000/436.395/437.385
ANTELSAT 24 Aug 10:30:15 10:34:48 55° 75° (ENE) 10:39:17 437.575/2403.000
Oscar 11 24 Aug 10:30:42 10:35:02 81° 282° (WNW) 10:39:19 145.826/435.025
FUNcube-1 24 Aug 10:32:54 10:37:04 82° 284° (WNW) 10:41:11 145.935
HUMSAT D 24 Aug 10:37:27 10:40:28 20° 95° (E) 10:43:29 437.325/437.525
BEESAT 2 24 Aug 10:52:08 10:55:38 32° 113° (ESE) 10:59:10 435.950
ZACube-1 24 Aug 10:52:22 10:56:19 42° 286° (WNW) 11:00:13 437.345
RS-15 24 Aug 10:56:32 11:08:28 50° 51° (NE) 11:20:07 29.354- 29.394
DELFI C3 24 Aug 10:59:18 11:03:19 89° 273° (W) 11:07:19 145.870
TIGRISAT 24 Aug 11:02:15 11:06:53 67° 259° (WSW) 11:11:28 435.000
HO-68 24 Aug 11:12:48 11:16:39 15° 303° (WNW) 11:20:30 435.675
GONETS M04 24 Aug 11:13:18 11:17:15 14° 78° (ENE) 11:21:12
QB50P1 24 Aug 11:15:20 11:18:41 23° 70° (ENE) 11:22:03 145.935-145.965
BEESAT 3 24 Aug 11:17:47 11:21:37 55° 302° (WNW) 11:25:29 437.485
JAS-2 24 Aug 11:23:23 11:26:03 14° 62° (ENE) 11:28:45 435.910
AUBIESAT-1 24 Aug 11:23:50 11:25:42 13° 96° (E) 11:27:30 437.475
POPSAT HIP 1 24 Aug 11:24:35 11:28:16 28° 71° (ENE) 11:31:57 437.405
M-CUBED/EXP-1 PRIME 24 Aug 11:25:20 11:28:09 18° 98° (E) 11:30:49 437.505
ISS 24 Aug 11:27:59 11:30:17 18° 329° (NNW) 11:32:37 145.825
SO-50 24 Aug 11:28:43 11:31:49 18° 251° (WSW) 11:34:51 436.795
UNISAT 6 24 Aug 11:30:14 11:34:20 30° 263° (W) 11:38:24 437.425
CUSAT 1 24 Aug 11:33:44 11:40:03 88° 83° (E) 11:47:43 437.405
BUGSAT 1 24 Aug 11:34:24 11:36:30 14° 66° (ENE) 11:38:37 437.445
CUBEBUG 1 24 Aug 11:42:13 11:42:47 10° 91° (E) 11:43:20 437.445
ESTCUBE 1 24 Aug 11:51:36 11:55:13 23° 96° (E) 11:58:49 437.505/2401.250
QB50P2 24 Aug 11:53:19 11:57:34 70° 77° (ENE) 12:01:51 145.880/145.840
DANDE 24 Aug 11:54:14 11:59:21 52° 81° (E) 12:06:01 436.750
POLYITAN 1 24 Aug 11:55:51 12:00:07 71° 75° (ENE) 12:04:23 437.675
DUCHIFAT 1 24 Aug 11:56:18 12:00:30 61° 76° (ENE) 12:04:42 145.980
NANOSAT C BR1 24 Aug 12:08:07 12:12:24 87° 262° (W) 12:16:41 145.865
ANTELSAT 24 Aug 12:10:03 12:11:45 12° 268° (W) 12:13:26 437.575/2403.000
HUMSAT D 24 Aug 12:12:40 12:16:02 25° 289° (WNW) 12:19:24 437.325/437.525
AISAT 24 Aug 12:15:49 12:19:24 23° 96° (E) 12:22:57 437.250
BEESAT 2 24 Aug 12:30:41 12:33:30 19° 309° (NW) 12:36:21 435.950
AIST 2 24 Aug 12:32:45 12:35:01 15° 109° (ESE) 12:37:18 435.215
UKube-1 24 Aug 12:45:27 12:48:58 24° 96° (E) 12:52:28 .
QB50P1 24 Aug 12:50:46 12:54:18 25° 264° (W) 12:57:52 145.935-145.965
Oscar 19 24 Aug 12:51:19 12:55:01 20° 66° (ENE) 12:58:43 437.125/150
Cosmos 2499 24 Aug 12:52:43 13:00:56 59° 92° (E) 13:08:33 435.465 / 435.565
50 SAT 24 Aug 12:53:36 12:57:13 67° 100° (E) 13:00:51 437.505
AUBIESAT-1 24 Aug 12:56:34 13:00:23 38° 292° (WNW) 13:03:55 437.475
M-CUBED/EXP-1 PRIME 24 Aug 12:59:04 13:02:43 29° 294° (WNW) 13:06:07 437.505
POPSAT HIP 1 24 Aug 13:00:51 13:04:01 20° 265° (W) 13:07:11 437.405
PCSat 24 Aug 13:02:49 13:08:13 86° 115° (ESE) 13:13:40 145.827
VELOX 1 24 Aug 13:02:52 13:07:21 80° 102° (ESE) 13:11:47 145.980
GONETS M04 24 Aug 13:03:55 13:12:39 87° 95° (E) 13:21:30
JAS-2 24 Aug 13:05:30 13:10:34 57° 260° (W) 13:15:48 435.910
BUGSAT 1 24 Aug 13:07:24 13:11:27 44° 261° (W) 13:15:32 437.445
RS-15 24 Aug 13:09:22 13:20:53 48° 252° (WSW) 13:32:07 29.354- 29.394
CUBEBUG 1 24 Aug 13:15:01 13:19:22 58° 285° (WNW) 13:23:41 437.445
CUSAT 1 24 Aug 13:18:32 13:21:37 14° 273° (W) 13:24:56 437.405
JUGNU 24 Aug 13:25:02 13:28:31 16° 173° (S) 13:31:59 437.505
ESTCUBE 1 24 Aug 13:28:07 13:31:56 28° 290° (WNW) 13:35:46 437.505/2401.250
Gurwin Techsat 1B 24 Aug 13:31:21 13:35:25 23° 67° (ENE) 13:39:29 435.225
DX 1 24 Aug 13:33:03 13:37:25 68° 285° (WNW) 13:41:45 434.975-435.025
DANDE 24 Aug 13:38:08 13:42:00 19° 267° (W) 13:46:31 436.750
SPROUT 24 Aug 13:50:15 13:54:26 55° 286° (WNW) 13:58:36 437.525
AISAT 24 Aug 13:52:03 13:55:47 27° 290° (WNW) 13:59:29 437.250
O/OREOS (USA 219) 24 Aug 13:54:17 13:56:32 14° 99° (E) 13:58:47 437.305
ITAMSAT 1 24 Aug 13:59:28 14:01:15 12° 62° (ENE) 14:03:02 435.822/435.867
AIST 2 24 Aug 14:09:16 14:13:07 39° 303° (WNW) 14:17:00 435.215
AO-7 24 Aug 14:12:39 14:17:36 17° 54° (NE) 14:22:31 29.400- 29.500
UKube-1 24 Aug 14:21:22 14:24:54 25° 290° (WNW) 14:28:24 .
TISAT 1 24 Aug 14:22:48 14:27:00 66° 101° (E) 14:31:09 437.305
Oscar 19 24 Aug 14:29:08 14:33:58 42° 261° (W) 14:38:53 437.125/150
ITUPSAT 1 24 Aug 14:47:27 14:50:58 20° 95° (E) 14:54:27 437.325
Cosmos 2499 24 Aug 14:47:54 14:54:20 24° 287° (WNW) 15:00:28 435.465 / 435.565
PCSat 24 Aug 14:49:46 14:52:19 13° 313° (NW) 14:54:52 145.827
SRMSAT 24 Aug 14:55:43 14:58:22 13° 168° (SSE) 15:01:01 437.500
GONETS M04 24 Aug 15:05:25 15:10:35 17° 294° (WNW) 15:15:47
Gurwin Techsat 1B 24 Aug 15:10:09 15:15:04 39° 262° (W) 15:20:02 435.225
JUGNU 24 Aug 15:13:01 15:16:48 17° 183° (S) 15:20:34 437.505
SWISSCUBE 24 Aug 15:21:38 15:26:19 56° 101° (E) 15:30:58 437.505
AO-85 24 Aug 15:26:01 15:29:47 31° 54° (NE) 15:33:19 145.980
O/OREOS (USA 219) 24 Aug 15:31:12 15:35:28 44° 294° (WNW) 15:39:47 437.305
ITAMSAT 1 24 Aug 15:34:50 15:40:02 76° 257° (WSW) 15:45:14 435.822/435.867
BEESAT 24 Aug 15:39:08 15:43:54 78° 103° (ESE) 15:48:40 436.000
AO-7 24 Aug 16:00:47 16:09:09 86° 72° (ENE) 16:17:33 29.400- 29.500
ISS 24 Aug 16:21:23 16:23:31 16° 30° (NNE) 16:25:38 145.825
ITUPSAT 1 24 Aug 16:24:32 16:28:50 35° 289° (WNW) 16:33:07 437.325
MOZHAYETS 4 24 Aug 16:24:56 16:29:01 32° 97° (E) 16:33:06
SRMSAT 24 Aug 16:42:56 16:46:47 18° 178° (S) 16:50:38 437.500
KKS-1 24 Aug 16:45:13 16:49:26 40° 99° (E) 16:53:37 437.445
SWISSCUBE 24 Aug 17:01:18 17:03:35 14° 295° (WNW) 17:05:53 437.505
HORYU 2 24 Aug 17:02:25 17:06:34 39° 72° (ENE) 17:10:44 437.375
JUGNU 24 Aug 17:02:47 17:05:03 12° 193° (SSW) 17:07:18 437.505
AO-85 24 Aug 17:07:09 17:09:54 17° 251° (WSW) 17:12:31 145.980
YUBILEINY 24 Aug 17:08:52 17:15:24 23° 69° (ENE) 17:21:51 435.215
STARS 24 Aug 17:30:49 17:35:11 65° 101° (E) 17:39:31 437.465
GOMX 1 24 Aug 17:31:01 17:33:21 13° 63° (ENE) 17:35:45 467.674
BRITE-PL 24 Aug 17:34:40 17:38:45 31° 70° (ENE) 17:43:09 437.365/2234.400
CUBESAT XI-V 24 Aug 17:35:36 17:39:17 23° 95° (E) 17:42:58 437.345
Cubesat XI-IV 24 Aug 17:37:57 17:41:32 18° 65° (ENE) 17:45:06 437.490
LilacSat-2 24 Aug 17:41:53 17:43:34 13° 68° (ENE) 17:45:14 437.200
CUTE-I 24 Aug 17:50:13 17:54:26 24° 67° (ENE) 17:58:40 437.470
DOVE 4 24 Aug 17:56:46 17:57:59 11° 62° (ENE) 17:59:14 437.250
ISS 24 Aug 17:56:58 18:00:09 54° 226° (SW) 18:03:19 145.825
AO-7 24 Aug 17:57:52 18:02:42 16° 267° (W) 18:07:33 29.400- 29.500
NOAA 18 24 Aug 17:59:58 18:04:39 29° 68° (ENE) 18:09:20 137.9125
NOAA 15 24 Aug 18:02:19 18:07:11 41° 71° (ENE) 18:12:06 137.62
MOZHAYETS 4 24 Aug 18:02:35 18:05:56 21° 291° (WNW) 18:09:19
KKS-1 24 Aug 18:22:56 18:25:38 16° 293° (WNW) 18:28:18 437.445
SRMSAT 24 Aug 18:31:51 18:35:13 16° 188° (S) 18:38:36 437.500
Cosmos 2491 24 Aug 18:39:21 18:47:39 52° 90° (E) 18:56:01 435.465 / 435.565
HORYU 2 24 Aug 18:40:33 18:43:14 16° 266° (W) 18:45:56 437.375
CINEMA 3 24 Aug 19:01:32 19:04:07 14° 65° (ENE) 19:06:42 145.822/145.860
YUBILEINY 24 Aug 19:04:11 19:12:52 68° 267° (W) 19:21:27 435.215
GOMX 1 24 Aug 19:05:52 19:10:42 65° 260° (W) 19:15:54 467.674
CANX-2 24 Aug 19:10:17 19:11:34 11° 66° (ENE) 19:12:51 2200.000
STRAND 1 24 Aug 19:10:59 19:12:09 11° 91° (E) 19:13:19 437.568
CUBESAT XI-V 24 Aug 19:12:31 19:16:37 30° 289° (WNW) 19:20:42 437.345
BRITE-PL 24 Aug 19:13:36 19:17:15 23° 267° (W) 19:21:09 437.365/2234.400
LilacSat-2 24 Aug 19:13:54 19:17:29 37° 262° (W) 19:21:06 437.200
Cubesat XI-IV 24 Aug 19:15:59 19:21:10 50° 260° (W) 19:26:21 437.490
CUTE 1.7 + AOD 2 24 Aug 19:16:55 19:18:22 12° 66° (ENE) 19:19:50 437.475
CUTE-I 24 Aug 19:29:21 19:34:14 36° 262° (W) 19:39:09 437.470
DOVE 4 24 Aug 19:29:48 19:34:50 83° 259° (W) 19:40:07 437.250
Cosmos 2504 24 Aug 19:33:37 19:40:51 68° 82° (E) 19:47:58 435.465 / 435.565
BEESAT 3 24 Aug 19:38:07 19:41:35 28° 55° (NE) 19:45:01 437.485
NOAA 18 24 Aug 19:40:12 19:45:08 33° 262° (W) 19:50:06 137.9125
COMPASS 1 24 Aug 19:42:29 19:43:00 10° 66° (ENE) 19:43:32 437.405
NOAA 15 24 Aug 19:43:15 19:47:05 20° 265° (W) 19:50:56 137.62
HO-68 24 Aug 19:47:29 19:54:18 48° 68° (ENE) 20:01:08 435.675
AIST 1 24 Aug 20:25:52 20:28:17 14° 73° (ENE) 20:30:42
SEEDS 24 Aug 20:28:19 20:32:23 58° 75° (ENE) 20:36:29 437.485
CINEMA 3 24 Aug 20:35:45 20:40:41 60° 260° (W) 20:45:39 145.822/145.860
Cosmos 2491 24 Aug 20:37:25 20:44:45 30° 288° (WNW) 20:52:10 435.465 / 435.565
CANX-2 24 Aug 20:42:50 20:46:56 51° 261° (W) 20:51:03 2200.000
STRAND 1 24 Aug 20:46:40 20:51:45 70° 285° (WNW) 20:56:49 437.568
CUTE 1.7 + AOD 2 24 Aug 20:49:40 20:53:44 49° 261° (W) 20:57:49 437.475
BEESAT 2 24 Aug 20:50:08 20:54:10 86° 241° (WSW) 20:58:09 435.950
AAUSAT CUBESAT 2 24 Aug 21:09:16 21:13:21 83° 257° (WSW) 21:17:29 437.432
COMPASS 1 24 Aug 21:14:00 21:18:02 54° 260° (W) 21:22:05 437.405
BEESAT 3 24 Aug 21:16:09 21:19:03 20° 249° (WSW) 21:21:56 437.485
CUBEBUG 2 24 Aug 21:16:43 21:21:27 75° 260° (W) 21:26:07 437.445
UWE-3 24 Aug 21:21:37 21:26:16 82° 77° (ENE) 21:30:49 435.000/436.395/437.385
Oscar 11 24 Aug 21:21:58 21:26:08 49° 74° (ENE) 21:30:17 145.826/435.025
FUNcube-1 24 Aug 21:24:37 21:28:57 50° 75° (ENE) 21:33:14 145.935
Cosmos 2504 24 Aug 21:29:12 21:33:19 16° 279° (W) 21:37:26 435.465 / 435.565
HO-68 24 Aug 21:36:10 21:42:09 28° 264° (W) 21:48:10 435.675
DELFI C3 24 Aug 21:42:06 21:45:34 31° 73° (ENE) 21:49:03 145.870
ZACube-1 24 Aug 21:43:58 21:48:30 88° 250° (WSW) 21:52:58 437.345
PCSat 24 Aug 21:54:15 21:59:11 34° 57° (ENE) 22:04:04 145.827
PRISM 24 Aug 21:59:51 22:04:03 86° 103° (ESE) 22:08:14 437.425
AIST 1 24 Aug 22:01:56 22:06:02 39° 268° (W) 22:10:06
AUBIESAT-1 24 Aug 22:06:13 22:08:31 14° 61° (ENE) 22:10:50 437.475
M-CUBED/EXP-1 PRIME 24 Aug 22:08:01 22:11:08 18° 62° (ENE) 22:14:16 437.505
ANTELSAT 24 Aug 22:27:01 22:29:11 14° 93° (E) 22:31:19 437.575/2403.000
AIST 2 24 Aug 22:33:17 22:37:19 45° 58° (ENE) 22:41:19 435.215
ESTCUBE 1 24 Aug 22:49:04 22:51:36 15° 66° (ENE) 22:54:08 437.505/2401.250
Cosmos 2499 24 Aug 22:50:44 22:53:44 13° 67° (ENE) 22:56:43 435.465 / 435.565
TIGRISAT 24 Aug 22:57:34 23:01:21 30° 97° (E) 23:05:05 435.000
HUMSAT D 24 Aug 22:59:41 23:03:49 58° 260° (W) 23:07:55 437.325/437.525
Oscar 11 24 Aug 23:01:07 23:02:29 11° 268° (W) 23:03:52 145.826/435.025
FUNcube-1 24 Aug 23:03:36 23:05:23 12° 268° (W) 23:07:11 145.935
AISAT 24 Aug 23:11:05 23:13:34 15° 66° (ENE) 23:16:02 437.250
DELFI C3 24 Aug 23:18:11 23:20:27 15° 266° (W) 23:22:44 145.870
GONETS M04 24 Aug 23:18:44 23:26:48 37° 75° (ENE) 23:34:47
UNISAT 6 24 Aug 23:24:41 23:28:59 71° 101° (ESE) 23:33:13 437.425
50 SAT 24 Aug 23:28:41 23:31:05 17° 70° (ENE) 23:33:29 437.505
PCSat 24 Aug 23:37:52 23:42:24 28° 252° (WSW) 23:46:55 145.827
AUBIESAT-1 24 Aug 23:37:55 23:42:24 59° 255° (WSW) 23:47:00 437.475
UKube-1 24 Aug 23:38:01 23:40:19 14° 66° (ENE) 23:42:36 .
M-CUBED/EXP-1 PRIME 24 Aug 23:40:50 23:45:12 45° 257° (WSW) 23:49:44 437.505
QB50P2 24 Aug 23:43:04 23:45:22 14° 93° (E) 23:47:38 145.880/145.840
POLYITAN 1 24 Aug 23:45:34 23:47:54 14° 93° (E) 23:50:13 437.675
DUCHIFAT 1 24 Aug 23:45:44 23:47:24 12° 93° (E) 23:49:04 145.980
VELOX 1 24 Aug 23:56:46 00:00:58 45° 73° (ENE) 00:05:14 145.980
NANOSAT C BR1 24 Aug 23:56:46 23:59:43 18° 95° (E) 00:02:40 145.865
SO-50 24 Aug 23:58:27 00:02:33 28° 112° (ESE) 00:06:40 436.795
ANTELSAT 25 Aug 00:02:02 00:06:04 40° 287° (WNW) 00:10:02 437.575/2403.000
O/OREOS (USA 219) 25 Aug 00:06:00 00:09:05 17° 60° (ENE) 00:12:10 437.305
CUBEBUG 1 25 Aug 00:07:13 00:11:34 76° 76° (ENE) 00:15:59 437.445
AIST 2 25 Aug 00:13:22 00:15:22 13° 252° (WSW) 00:17:21 435.215
JAS-2 25 Aug 00:16:35 00:22:03 24° 95° (E) 00:27:52 435.910
ESTCUBE 1 25 Aug 00:23:45 00:28:00 43° 261° (W) 00:32:17 437.505/2401.250
DX 1 25 Aug 00:24:57 00:29:15 66° 76° (ENE) 00:33:37 434.975-435.025
TIGRISAT 25 Aug 00:34:48 00:37:48 19° 292° (WNW) 00:40:46 435.000
CUSAT 1 25 Aug 00:36:21 00:38:57 53° 281° (WNW) 00:41:57 437.405
QB50P1 25 Aug 00:37:51 00:42:04 65° 102° (ESE) 00:46:13 145.935-145.965
SPROUT 25 Aug 00:40:00 00:44:17 70° 76° (ENE) 00:48:35 437.525
Cosmos 2499 25 Aug 00:40:37 00:47:42 85° 266° (W) 00:54:51 435.465 / 435.565
AISAT 25 Aug 00:45:23 00:49:36 44° 261° (W) 00:53:53 437.250
POPSAT HIP 1 25 Aug 00:47:32 00:51:46 84° 100° (E) 00:55:57 437.405
BUGSAT 1 25 Aug 00:52:38 00:56:21 31° 98° (E) 01:00:00 437.445
50 SAT 25 Aug 01:01:39 01:04:29 22° 264° (W) 01:07:19 437.505
DANDE 25 Aug 01:03:05 01:05:42 62° 98° (E) 01:08:16 436.750
TISAT 1 25 Aug 01:11:16 01:15:01 31° 72° (ENE) 01:18:47 437.305
UKube-1 25 Aug 01:11:51 01:15:57 43° 260° (W) 01:20:05 .
GONETS M04 25 Aug 01:15:27 01:23:34 42° 272° (W) 01:31:40
RS-15 25 Aug 01:16:06 01:26:19 41° 106° (ESE) 01:36:59 29.354- 29.394
QB50P2 25 Aug 01:17:22 01:21:17 38° 287° (WNW) 01:25:10 145.880/145.840
DUCHIFAT 1 25 Aug 01:19:18 01:23:17 43° 286° (WNW) 01:27:15 145.980
POLYITAN 1 25 Aug 01:19:56 01:23:49 37° 287° (WNW) 01:27:40 437.675
NANOSAT C BR1 25 Aug 01:31:48 01:35:26 29° 289° (WNW) 01:39:04 145.865
VELOX 1 25 Aug 01:35:31 01:37:38 13° 267° (W) 01:39:46 145.980
SO-50 25 Aug 01:38:38 01:42:55 30° 307° (NW) 01:47:13 436.795
O/OREOS (USA 219) 25 Aug 01:44:21 01:48:38 40° 256° (WSW) 01:52:55 437.305
ITUPSAT 1 25 Aug 01:51:41 01:54:45 17° 66° (ENE) 01:57:49 437.325
Gurwin Techsat 1B 25 Aug 01:53:04 01:54:05 10° 91° (E) 01:55:06 435.225
JAS-2 25 Aug 02:00:35 02:07:09 57° 287° (WNW) 02:14:27 435.910
PHONESAT 2.4 25 Aug 02:01:36 02:02:57 12° 143° (SE) 02:04:18 2401.200-2431.200
SWISSCUBE 25 Aug 02:24:50 02:29:20 44° 72° (ENE) 02:33:50 437.505
BUGSAT 1 25 Aug 02:28:45 02:31:26 17° 292° (WNW) 02:34:06 437.445
BEESAT 25 Aug 02:42:07 02:46:47 61° 75° (ENE) 02:51:30 436.000
Oscar 19 25 Aug 02:43:33 02:48:47 88° 104° (ESE) 02:53:59 437.125/150
TISAT 1 25 Aug 02:47:47 02:50:40 18° 265° (W) 02:53:35 437.305
MOZHAYETS 4 25 Aug 03:24:08 03:27:35 22° 69° (ENE) 03:31:02
ITUPSAT 1 25 Aug 03:27:42 03:32:13 43° 261° (W) 03:36:45 437.325
Gurwin Techsat 1B 25 Aug 03:29:11 03:34:30 76° 285° (WNW) 03:39:48 435.225
PHONESAT 2.4 25 Aug 03:35:59 03:38:58 85° 157° (SSE) 03:41:58 2401.200-2431.200
KKS-1 25 Aug 03:40:20 03:44:01 26° 70° (ENE) 03:47:44 437.445
